Location: Newark
(35.0308°N, 10.9039°E)
Time: 01:06:45
(UTC+00:00)

ISS - Visible Passes

Search period start: 15 October 2019 00:00
Search period end: 25 October 2019 00:00
Orbit: 411 x 421 km, 51.6° (Epoch: 14 October)

Date Brightness Start Highest point End Pass type
(mag) Time Alt. Az. Time Alt. Az. Time Alt. Az.
22 Oct -1.5 04:47:11 10° S 04:50:04 27° SE 04:52:58 10° ENE visible
23 Oct -0.8 03:59:45 10° SSE 04:01:40 14° SE 04:03:36 10° E visible
24 Oct -3.8 04:46:10 10° SW 04:49:32 85° NW 04:52:54 10° NE visible
